User: anonymous   Login
Location: Newport
(44.6370°N, 124.0520°W)
Time: 07:25:31
(UTC-07:00)
Language:

Tiangong 1 - Orbit

View from above orbital plane
View from above orbital plane
View from above satellite
View from above satellite

Ground track
Ground track

The orbit data is extracted from the following two-line orbital elements,

1 37820U 11053A   17293.10349669  .00037499  86453-5  13687-3 0  9991
2 37820  42.7555 150.7320 0020509 254.4490 243.4013 15.88436057347763
Epoch (UTC): 20 October 2017 02:29:02
Eccentricity: 0.0020509
inclination: 42.7555°
perigee height: 293 km
apogee height: 320 km
right ascension of ascending node: 150.7320°
argument of perigee: 254.4490°
revolutions per day: 15.88436057
mean anomaly at epoch: 243.4013°
orbit number at epoch: 34776

The dashed part of the orbit path shows where the satellite is in the earth's shadow,  

DLR